SGR1705 KDSM-KMSP

Flight info

Callsign SGR1705
Flight time 0h 44m
Altitude 31000
Route IWILD ROKKK NITZR4
Aircraft E170/M-SDE3GILORVW/S

Departure

Time 2026-05-07 09:33
Airport Des Moines International Airport (KDSM)

Arrival

Time 2026-05-07 10:17
Airport Minneapolis–Saint Paul International Airport / Wold–Chamberlain Field (KMSP)
Time Latitude Longitude Altitude Speed Heading
2026-05-07 09:18 41.53223 -93.65076 964 ft 0 kts 123°
2026-05-07 09:25 41.53225 -93.65080 964 ft 2 kts 123°
2026-05-07 09:25 41.53233 -93.65096 964 ft 2 kts 123°
2026-05-07 09:25 41.53241 -93.65112 964 ft 2 kts 123°
2026-05-07 09:25 41.53250 -93.65129 964 ft 2 kts 123°
2026-05-07 09:26 41.53257 -93.65144 964 ft 0 kts 123°
2026-05-07 09:26 41.53261 -93.65158 964 ft 2 kts 91°
2026-05-07 09:26 41.53261 -93.65165 964 ft 2 kts 77°
2026-05-07 09:27 41.53258 -93.65173 964 ft 2 kts 57°
2026-05-07 09:27 41.53248 -93.65185 964 ft 2 kts 17°
2026-05-07 09:27 41.53250 -93.65186 964 ft 0 kts
2026-05-07 09:29 41.53251 -93.65186 963 ft 0 kts
2026-05-07 09:29 41.53255 -93.65186 964 ft 1 kts
2026-05-07 09:29 41.53266 -93.65186 964 ft 2 kts 359°
2026-05-07 09:30 41.53294 -93.65186 964 ft 5 kts 359°
2026-05-07 09:30 41.53340 -93.65188 964 ft 7 kts 358°
2026-05-07 09:30 41.53404 -93.65189 964 ft 10 kts
2026-05-07 09:30 41.53477 -93.65189 964 ft 10 kts 359°
2026-05-07 09:31 41.53555 -93.65191 964 ft 11 kts 357°
2026-05-07 09:31 41.53617 -93.65134 964 ft 11 kts 51°
2026-05-07 09:31 41.53665 -93.65047 964 ft 12 kts 53°
2026-05-07 09:31 41.53742 -93.65031 964 ft 12 kts 326°
2026-05-07 09:32 41.53755 -93.65125 964 ft 12 kts 236°
2026-05-07 09:32 41.53699 -93.65231 964 ft 15 kts 234°
2026-05-07 09:32 41.53521 -93.65556 964 ft 76 kts 233°
2026-05-07 09:32 41.53092 -93.66336 964 ft 131 kts 234°
2026-05-07 09:33 41.52468 -93.67418 1161 ft 151 kts 230°
2026-05-07 09:33 41.51772 -93.68433 1694 ft 153 kts 226°
2026-05-07 09:33 41.51107 -93.69589 2189 ft 163 kts 238°
2026-05-07 09:33 41.50484 -93.70927 2552 ft 182 kts 255°
2026-05-07 09:34 41.50547 -93.72622 2799 ft 194 kts 300°
2026-05-07 09:34 41.51569 -93.73760 3180 ft 202 kts 346°
2026-05-07 09:34 41.52985 -93.73897 3731 ft 210 kts 358°
2026-05-07 09:34 41.54494 -93.73931 4244 ft 225 kts 358°
2026-05-07 09:35 41.56106 -93.73988 4682 ft 242 kts 353°
2026-05-07 09:35 41.57779 -93.74427 5360 ft 249 kts 341°
2026-05-07 09:35 41.59388 -93.75237 6185 ft 250 kts 335°
2026-05-07 09:35 41.60952 -93.76238 7060 ft 250 kts 331°
2026-05-07 09:36 41.62472 -93.77331 7914 ft 250 kts 329°
2026-05-07 09:36 41.64000 -93.78494 8740 ft 253 kts 328°
2026-05-07 09:36 41.65518 -93.79684 9522 ft 256 kts 327°
2026-05-07 09:36 41.67036 -93.80891 10300 ft 260 kts 326°
2026-05-07 09:37 41.68599 -93.82145 11006 ft 266 kts 325°
2026-05-07 09:37 41.70207 -93.83441 11610 ft 276 kts 325°
2026-05-07 09:37 41.71892 -93.84802 12180 ft 287 kts 324°
2026-05-07 09:37 41.73620 -93.86198 12799 ft 295 kts 324°
2026-05-07 09:38 41.75370 -93.87614 13510 ft 299 kts 324°
2026-05-07 09:38 41.77163 -93.89065 14305 ft 301 kts 323°
2026-05-07 09:38 41.78943 -93.90507 15107 ft 302 kts 322°
2026-05-07 09:38 41.80739 -93.91964 15818 ft 305 kts 321°
2026-05-07 09:39 41.82555 -93.93437 16503 ft 308 kts 321°
2026-05-07 09:39 41.84392 -93.94930 17127 ft 312 kts 321°
2026-05-07 09:39 41.86240 -93.96433 17751 ft 316 kts 320°
2026-05-07 09:39 41.88131 -93.97971 18348 ft 319 kts 320°
2026-05-07 09:40 41.90039 -93.99523 18927 ft 323 kts 320°
2026-05-07 09:40 41.91974 -94.01098 19518 ft 326 kts 319°
2026-05-07 09:40 41.93917 -94.02672 20117 ft 330 kts 322°
2026-05-07 09:40 41.96188 -94.03589 20626 ft 360 kts 345°
2026-05-07 09:41 41.98705 -94.03719 21165 ft 366 kts 347°
2026-05-07 09:41 42.01269 -94.03834 21654 ft 370 kts 346°
2026-05-07 09:41 42.03873 -94.03956 22108 ft 375 kts 346°
2026-05-07 09:41 42.06484 -94.04079 22623 ft 377 kts 346°
2026-05-07 09:42 42.09066 -94.04198 23428 ft 369 kts 345°
2026-05-07 09:42 42.11576 -94.04319 24104 ft 365 kts 344°
2026-05-07 09:42 42.14128 -94.04445 24586 ft 367 kts 344°
2026-05-07 09:42 42.16706 -94.04572 24962 ft 372 kts 345°
2026-05-07 09:43 42.19312 -94.04697 25315 ft 377 kts 345°
2026-05-07 09:43 42.21919 -94.04823 25708 ft 381 kts 345°
2026-05-07 09:43 42.24582 -94.04948 26329 ft 378 kts 344°
2026-05-07 09:43 42.27179 -94.05071 26980 ft 373 kts 344°
2026-05-07 09:44 42.29756 -94.05198 27455 ft 374 kts 344°
2026-05-07 09:44 42.32361 -94.05325 27846 ft 376 kts 344°
2026-05-07 09:44 42.34972 -94.05453 28185 ft 380 kts 344°
2026-05-07 09:44 42.37694 -94.05589 28178 ft 395 kts 344°
2026-05-07 09:45 42.40447 -94.05723 28213 ft 407 kts 345°
2026-05-07 09:45 42.43325 -94.05862 28245 ft 419 kts 345°
2026-05-07 09:45 42.46277 -94.06004 28384 ft 427 kts 345°
2026-05-07 09:45 42.49234 -94.06145 28680 ft 430 kts 345°
2026-05-07 09:46 42.52236 -94.06287 29009 ft 425 kts 345°
2026-05-07 09:46 42.58121 -94.06522 29051 ft 435 kts 350°
2026-05-07 09:46 42.61171 -94.06036 29061 ft 452 kts
2026-05-07 09:47 42.64256 -94.04864 29063 ft 465 kts 10°
2026-05-07 09:47 42.67240 -94.02995 29065 ft 478 kts 20°
2026-05-07 09:47 42.70060 -94.00517 29069 ft 482 kts 25°
2026-05-07 09:48 42.75762 -93.95864 29058 ft 480 kts 21°
2026-05-07 09:48 42.81525 -93.91371 29058 ft 478 kts 20°
2026-05-07 09:49 42.87295 -93.86899 29054 ft 476 kts 19°
2026-05-07 09:49 42.93089 -93.82446 29053 ft 477 kts 20°
2026-05-07 09:50 42.98836 -93.78020 29055 ft 477 kts 20°
2026-05-07 09:50 43.04639 -93.73540 29059 ft 478 kts 20°
2026-05-07 09:51 43.10372 -93.69104 29062 ft 476 kts 20°
2026-05-07 09:51 43.16178 -93.64603 29055 ft 477 kts 20°
2026-05-07 09:52 43.21937 -93.60127 29057 ft 477 kts 20°
2026-05-07 09:52 43.24785 -93.57918 29037 ft 463 kts 18°
2026-05-07 09:52 43.27616 -93.56190 28918 ft 430 kts
2026-05-07 09:52 43.30370 -93.55164 28722 ft 400 kts 356°
2026-05-07 09:53 43.33117 -93.54743 28276 ft 405 kts 350°
2026-05-07 09:53 43.36020 -93.54484 27700 ft 426 kts 351°
2026-05-07 09:53 43.38957 -93.54216 26907 ft 426 kts 352°
2026-05-07 09:53 43.41898 -93.53954 26108 ft 422 kts 352°
2026-05-07 09:54 43.44735 -93.53701 25172 ft 405 kts 352°
2026-05-07 09:54 43.47489 -93.53457 24372 ft 387 kts 352°
2026-05-07 09:54 43.50133 -93.53229 24078 ft 386 kts 352°
2026-05-07 09:54 43.52818 -93.52997 23585 ft 386 kts 352°
2026-05-07 09:55 43.55477 -93.52763 23151 ft 383 kts 353°
2026-05-07 09:55 43.58137 -93.52530 22727 ft 378 kts 353°
2026-05-07 09:55 43.60734 -93.52301 22316 ft 373 kts 354°
2026-05-07 09:55 43.63308 -93.52074 21888 ft 370 kts 354°
2026-05-07 09:56 43.65874 -93.51849 21487 ft 368 kts 354°
2026-05-07 09:56 43.68386 -93.51628 21082 ft 365 kts 355°
2026-05-07 09:56 43.70933 -93.51404 20672 ft 362 kts 355°
2026-05-07 09:56 43.73409 -93.51185 20271 ft 359 kts 355°
2026-05-07 09:57 43.75872 -93.50967 19885 ft 355 kts 355°
2026-05-07 09:57 43.78321 -93.50751 19492 ft 352 kts 356°
2026-05-07 09:57 43.80776 -93.50535 19094 ft 350 kts 356°
2026-05-07 09:57 43.83200 -93.50320 18723 ft 348 kts 356°
2026-05-07 09:58 43.85605 -93.50107 18329 ft 345 kts 356°
2026-05-07 09:58 43.87973 -93.49897 17950 ft 343 kts 357°
2026-05-07 09:58 43.90340 -93.49687 17585 ft 340 kts 357°
2026-05-07 09:58 43.92700 -93.49477 17201 ft 337 kts 357°
2026-05-07 09:59 43.95031 -93.49271 16840 ft 335 kts 357°
2026-05-07 09:59 43.97336 -93.49045 16486 ft 333 kts 359°
2026-05-07 09:59 43.99638 -93.48782 16094 ft 332 kts 359°
2026-05-07 09:59 44.01934 -93.48520 15726 ft 330 kts 359°
2026-05-07 10:00 44.04204 -93.48261 15362 ft 328 kts 359°
2026-05-07 10:00 44.06465 -93.48002 14998 ft 325 kts 359°
2026-05-07 10:00 44.08691 -93.47746 14643 ft 323 kts 359°
2026-05-07 10:00 44.10953 -93.47488 14284 ft 320 kts 360°
2026-05-07 10:01 44.13173 -93.47232 13926 ft 318 kts 360°
2026-05-07 10:01 44.15376 -93.46980 13571 ft 316 kts 360°
2026-05-07 10:01 44.17551 -93.46729 13227 ft 314 kts
2026-05-07 10:01 44.19661 -93.46018 12893 ft 318 kts 16°
2026-05-07 10:02 44.21743 -93.44882 12527 ft 317 kts 17°
2026-05-07 10:02 44.23769 -93.43767 12175 ft 315 kts 17°
2026-05-07 10:02 44.25803 -93.42643 11821 ft 311 kts 17°
2026-05-07 10:02 44.27788 -93.41544 11475 ft 305 kts 17°
2026-05-07 10:03 44.29751 -93.40452 11141 ft 298 kts 17°
2026-05-07 10:03 44.31661 -93.39386 10808 ft 291 kts 17°
2026-05-07 10:03 44.33503 -93.38357 10493 ft 285 kts 17°
2026-05-07 10:03 44.35344 -93.37328 10174 ft 279 kts 17°
2026-05-07 10:04 44.37100 -93.36267 9874 ft 275 kts 22°
2026-05-07 10:04 44.38797 -93.35061 9572 ft 272 kts 22°
2026-05-07 10:04 44.40493 -93.33843 9272 ft 271 kts 23°
2026-05-07 10:04 44.42165 -93.32638 8978 ft 270 kts 24°
2026-05-07 10:05 44.43807 -93.31453 8682 ft 268 kts 24°
2026-05-07 10:05 44.45467 -93.30255 8382 ft 267 kts 24°
2026-05-07 10:05 44.47106 -93.29030 8084 ft 267 kts 32°
2026-05-07 10:05 44.48337 -93.27087 7999 ft 271 kts 52°
2026-05-07 10:06 44.49404 -93.24902 8018 ft 273 kts 52°
2026-05-07 10:06 44.50471 -93.22694 8018 ft 275 kts 52°
2026-05-07 10:06 44.51539 -93.20474 8021 ft 275 kts 52°
2026-05-07 10:06 44.52605 -93.18248 8016 ft 270 kts 52°
2026-05-07 10:07 44.53628 -93.16107 7984 ft 259 kts 52°
2026-05-07 10:07 44.54624 -93.14026 7978 ft 258 kts 52°
2026-05-07 10:07 44.55620 -93.11942 7976 ft 258 kts 52°
2026-05-07 10:07 44.56614 -93.09860 7973 ft 259 kts 52°
2026-05-07 10:08 44.57623 -93.07746 7828 ft 260 kts 52°
2026-05-07 10:08 44.58628 -93.05637 7567 ft 259 kts 52°
2026-05-07 10:08 44.59627 -93.03538 7286 ft 257 kts 52°
2026-05-07 10:08 44.60619 -93.01500 7007 ft 252 kts 45°
2026-05-07 10:09 44.61922 -93.00040 7008 ft 227 kts 30°
2026-05-07 10:09 44.63178 -92.98765 6984 ft 224 kts 33°
2026-05-07 10:09 44.64410 -92.97415 6838 ft 226 kts 33°
2026-05-07 10:09 44.65655 -92.96040 6620 ft 227 kts 34°
2026-05-07 10:10 44.66888 -92.94672 6375 ft 226 kts 34°
2026-05-07 10:10 44.68112 -92.93312 6130 ft 224 kts 34°
2026-05-07 10:10 44.69408 -92.92184 5881 ft 216 kts
2026-05-07 10:10 44.70825 -92.92429 5686 ft 209 kts 329°
2026-05-07 10:11 44.72054 -92.93532 5393 ft 209 kts 325°
2026-05-07 10:11 44.73246 -92.94701 5119 ft 208 kts 324°
2026-05-07 10:11 44.74401 -92.95873 4878 ft 206 kts 323°
2026-05-07 10:11 44.75562 -92.97070 4647 ft 204 kts 323°
2026-05-07 10:12 44.76705 -92.98261 4422 ft 205 kts 323°
2026-05-07 10:12 44.77848 -92.99458 4196 ft 205 kts 323°
2026-05-07 10:12 44.78901 -93.00780 3963 ft 206 kts 304°
2026-05-07 10:12 44.79642 -93.02474 3771 ft 205 kts 303°
2026-05-07 10:13 44.80388 -93.04190 3527 ft 199 kts 303°
2026-05-07 10:13 44.80974 -93.05528 3316 ft 179 kts 303°
2026-05-07 10:13 44.81456 -93.06628 3123 ft 171 kts 303°
2026-05-07 10:14 44.82066 -93.08021 2912 ft 162 kts 303°
2026-05-07 10:14 44.82616 -93.09280 2727 ft 143 kts 303°
2026-05-07 10:14 44.83110 -93.10410 2486 ft 131 kts 303°
2026-05-07 10:14 44.83587 -93.11500 2299 ft 130 kts 302°
2026-05-07 10:15 44.84061 -93.12583 2127 ft 130 kts 301°
2026-05-07 10:15 44.84545 -93.13686 1970 ft 134 kts 300°
2026-05-07 10:15 44.85035 -93.14803 1785 ft 136 kts 300°
2026-05-07 10:15 44.85534 -93.15949 1600 ft 137 kts 300°
2026-05-07 10:16 44.86029 -93.17095 1306 ft 137 kts 301°
2026-05-07 10:16 44.86525 -93.18225 1133 ft 135 kts 302°
2026-05-07 10:16 44.87012 -93.19341 966 ft 134 kts 301°
2026-05-07 10:16 44.87501 -93.20454 816 ft 127 kts 301°
2026-05-07 10:17 44.87882 -93.21336 820 ft 80 kts 301°
2026-05-07 10:17 44.88060 -93.21748 824 ft 31 kts 301°
2026-05-07 10:17 44.88166 -93.21990 827 ft 13 kts 307°
2026-05-07 10:17 44.88249 -93.21989 827 ft 12 kts 32°
2026-05-07 10:18 44.88324 -93.21920 826 ft 14 kts 35°
2026-05-07 10:18 44.88387 -93.21839 826 ft 14 kts 45°
2026-05-07 10:18 44.88452 -93.21748 826 ft 15 kts 45°
2026-05-07 10:18 44.88546 -93.21616 825 ft 17 kts 45°
2026-05-07 10:19 44.88633 -93.21493 825 ft 18 kts 43°
2026-05-07 10:19 44.88723 -93.21365 825 ft 18 kts 52°
2026-05-07 10:19 44.88715 -93.21204 823 ft 19 kts 113°
2026-05-07 10:19 44.88661 -93.21057 822 ft 19 kts 124°
2026-05-07 10:20 44.88587 -93.20885 820 ft 21 kts 121°
2026-05-07 10:20 44.88508 -93.20702 818 ft 23 kts 121°
2026-05-07 10:20 44.88423 -93.20507 815 ft 24 kts 122°
2026-05-07 10:20 44.88332 -93.20299 813 ft 26 kts 121°
2026-05-07 10:21 44.88242 -93.20088 811 ft 19 kts 122°
2026-05-07 10:21 44.88205 -93.20001 810 ft 10 kts 130°
2026-05-07 10:21 44.88146 -93.20016 810 ft 10 kts 208°
2026-05-07 10:21 44.88082 -93.20015 809 ft 5 kts 137°
2026-05-07 10:22 44.88065 -93.19978 809 ft 4 kts 131°
2026-05-07 10:22 44.88043 -93.19984 809 ft 2 kts 221°
2026-05-07 10:22 44.88032 -93.20000 809 ft 0 kts 224°